El Paso, TX

5:55 AM MST on January 22, 2018 (GMT -0700)
El Paso International

Weather History for KELP - July, 2013

Change the Weather History Date:

Wednesday, July 10, 2013

  Actual Average Record
Temperature  
Mean Temperature 87 °F 83 °F  
Max Temperature 98 °F 95 °F 112 °F (1979)
Min Temperature 76 °F 71 °F 57 °F (1985)
Degree Days  
Heating Degree Days 0 0  
Month to date heating degree days 0 0  
Since 1 June heating degree days 0 0  
Since 1 July heating degree days 0 0  
Cooling Degree Days 22 18  
Month to date cooling degree days 197 183  
Year to date cooling degree days 1368 1062  
Since 1 June cooling degree days 860 685  
Growing Degree Days 36 (Base 50)    
Moisture  
Dew Point 56 °F    
Average Humidity 40    
Maximum Humidity 58    
Minimum Humidity 22    
Precipitation  
Precipitation 0.00 in 0.04 in 1.33 in (1911)
Month to date precipitation 0.08 0.42  
Year to date precipitation 1.13 3.18  
Snow  
Snow 0.00 in - - ()
Month to date snowfall 0.0  
Since 1 June snowfall 0.0  
Since 1 July snowfall 0.0  
Snow Depth 0.00 in    
Sea Level Pressure  
Sea Level Pressure 29.83 in    
Wind  
Wind Speed 9 mph (SSE)    
Max Wind Speed 18 mph    
Max Gust Speed 30 mph    
Visibility 10 miles    
Events      
T = Trace of Precipitation, MM = Missing Value Source: NWS Daily Summary

Daily Weather History Graph

Daily Weather History Graph

Search for Another Location

Airport or City:

Trip Planner

Search our weather history database for the weather conditions in past years. The results will help you decide how hot, cold, wet, or windy it might be!

Date:

Astronomy

Jul. 10, 2013 Rise Set
Actual Time 6:07 AM MDT 8:13 PM MDT
Civil Twilight 5:40 AM MDT 8:41 PM MDT
Nautical Twilight 5:06 AM MDT 9:15 PM MDT
Astronomical Twilight 4:30 AM MDT 9:51 PM MDT
Moon 8:20 AM MDT (7/10) 9:38 PM MDT (7/10)
Length of Visible Light 15h 01m
Length of Day
14h 05m
Waxing Crescent, 5% of the Moon is Illuminated
Jul 10
Waxing Crescent
Jul 15
First Quarter
Jul 22
Full
Jul 29
Last Quarter
Aug 6
New

Hourly Weather History & Observations

Time (MDT) Temp. Heat Index Dew Point Humidity Pressure Visibility Wind Dir Wind Speed Gust Speed Precip Events Conditions
12:51 AM 82.0 °F 82.0 °F 57.9 °F 44% 29.86 in 10.0 mi SSE 16.1 mph 20.7 mph N/A   Partly Cloudy
1:51 AM 81.0 °F 81.1 °F 57.9 °F 45% 29.86 in 10.0 mi SSE 9.2 mph - N/A   Partly Cloudy
2:51 AM 80.1 °F 80.7 °F 59.0 °F 48% 29.86 in 10.0 mi SSE 9.2 mph - N/A   Partly Cloudy
3:51 AM 78.1 °F - 59.0 °F 52% 29.86 in 10.0 mi SE 9.2 mph - N/A   Scattered Clouds
4:51 AM 77.0 °F - 59.0 °F 54% 29.87 in 10.0 mi SSE 3.5 mph - N/A   Scattered Clouds
5:51 AM 75.9 °F - 59.0 °F 56% 29.87 in 10.0 mi SE 8.1 mph - N/A   Scattered Clouds
6:51 AM 75.9 °F - 59.0 °F 56% 29.89 in 10.0 mi SE 8.1 mph - N/A   Mostly Cloudy
7:51 AM 78.1 °F - 57.9 °F 50% 29.91 in 10.0 mi SSE 11.5 mph - N/A   Scattered Clouds
8:51 AM 81.0 °F 81.3 °F 59.0 °F 47% 29.91 in 10.0 mi SE 10.4 mph - N/A   Scattered Clouds
9:51 AM 82.9 °F 82.6 °F 57.9 °F 42% 29.91 in 10.0 mi South 9.2 mph - N/A   Scattered Clouds
10:51 AM 86.0 °F 84.9 °F 57.0 °F 37% 29.91 in 10.0 mi Variable 3.5 mph - N/A   Partly Cloudy
11:51 AM 89.1 °F 87.3 °F 55.9 °F 32% 29.89 in 10.0 mi SE 10.4 mph - N/A   Partly Cloudy
12:51 PM 91.9 °F 90.0 °F 55.0 °F 29% 29.86 in 10.0 mi East 11.5 mph 18.4 mph N/A   Scattered Clouds
1:51 PM 91.9 °F 89.5 °F 54.0 °F 27% 29.84 in 10.0 mi SSE 9.2 mph 19.6 mph N/A   Scattered Clouds
2:51 PM 95.0 °F 92.7 °F 54.0 °F 25% 29.81 in 10.0 mi Variable 6.9 mph - N/A   Scattered Clouds
3:51 PM 96.1 °F 93.5 °F 53.1 °F 23% 29.78 in 10.0 mi Calm Calm - N/A   Scattered Clouds
4:51 PM 97.0 °F 94.6 °F 53.1 °F 23% 29.75 in 10.0 mi SSE 13.8 mph 20.7 mph N/A   Scattered Clouds
5:51 PM 96.1 °F - 52.0 °F 22% 29.73 in 10.0 mi SSE 15.0 mph 23.0 mph N/A   Scattered Clouds
6:51 PM 96.1 °F - 52.0 °F 22% 29.73 in 10.0 mi South 8.1 mph 19.6 mph N/A   Scattered Clouds
7:51 PM 93.0 °F - 52.0 °F 25% 29.73 in 10.0 mi SSE 13.8 mph - N/A   Mostly Cloudy
8:51 PM 91.9 °F - 52.0 °F 26% 29.75 in 10.0 mi SSE 9.2 mph - N/A   Scattered Clouds
9:51 PM 90.0 °F - 51.1 °F 26% 29.77 in 10.0 mi SSE 9.2 mph - N/A   Scattered Clouds
10:51 PM 90.0 °F 87.5 °F 53.1 °F 28% 29.79 in 10.0 mi SSE 9.2 mph - N/A   Scattered Clouds
11:51 PM 87.1 °F 84.9 °F 53.1 °F 31% 29.80 in 10.0 mi SSE 9.2 mph - N/A   Scattered Clouds